Terminal Aerodrome Forecast
Issued by NWS Charleston, WV

Current Version | Previous Version | Text Only | Print | Product List | Glossary Off
Versions: 1 2 3 4 5 6 7 8 9 10 11 12 13 14 15 16 17 18 19 20 21 22 23 24 25 26 27

000
FTUS41 KRLX 190910 AAA
TAFCRW
TAF AMD
KCRW 190910Z 1909/2006 28014G24KT P6SM -SHRA OVC020
     FM191500 28010G18KT P6SM OVC025
     FM192100 28011G19KT P6SM BKN035
     FM200200 28010KT P6SM BKN035
     FM200400 26008KT P6SM SCT060=

USA.gov is the U.S. government's official web portal to all federal, state and local government web resources and services.